Weather History for Providence, RI

Change the Weather History Date:

Thursday, April 4, 2013

  Actual Average Record
Temperature  
Mean Temperature 42 °F 45 °F  
Max Temperature 54 °F 54 °F 76 °F (2010)
Min Temperature 30 °F 36 °F 14 °F (1954)
Degree Days  
Heating Degree Days 23 20  
Month to date heating degree days 92 82  
Since 1 July heating degree days 4725 4953  
Cooling Degree Days 0 0  
Month to date cooling degree days 0 0  
Year to date cooling degree days 0 0  
Moisture  
Dew Point 18 °F    
Average Humidity 47    
Maximum Humidity 76    
Minimum Humidity 18    
Precipitation  
Precipitation 0.00 in 0.17 in 1.61 in (1987)
Month to date precipitation 0.08 0.65  
Year to date precipitation 9.98 12.81  
Snow  
Snow 0.00 in 0.10 in 1.70 in (1957)
Month to date snowfall 0.0 0.2  
Since 1 July snowfall 46.3 33.4  
Snow Depth 0.00 in    
Sea Level Pressure  
Sea Level Pressure 30.21 in    
Wind  
Wind Speed 10 mph (WSW)    
Max Wind Speed 20 mph    
Max Gust Speed 24 mph    
Visibility 10 miles    
Events      
T = Trace of Precipitation, MM = Missing Value Source: NWS Daily Summary

Daily Weather History Graph

Daily Weather History Graph

Search for Another Location

Airport:

Trip Planner

Search our weather history database for the weather conditions in past years. The results will help you decide how hot, cold, wet, or windy it might be!

Date:

Astronomy

Apr. 04, 2013 Rise Set
Actual Time 6:23 AM EDT 7:14 PM EDT
Civil Twilight 5:55 AM EDT 7:42 PM EDT
Nautical Twilight 5:21 AM EDT 8:16 PM EDT
Astronomical Twilight 4:46 AM EDT 8:51 PM EDT
Moon 2:52 AM EDT (4/4) 1:25 PM EDT (4/4)
Length of Visible Light 13h 47m
Length of Day
12h 51m
Waning Crescent, 34% of the Moon is Illuminated
Apr 4
Waning Crescent
Apr 10
New
Apr 18
First Quarter
Apr 25
Full
May 2
Last Quarter

Hourly Weather History & Observations

Time (EDT) Temp. Windchill Dew Point Humidity Pressure Visibility Wind Dir Wind Speed Gust Speed Precip Events Conditions
12:51 AM 33.1 °F 26.1 °F 12.9 °F 43% 30.22 in 10.0 mi WNW 8.1 mph - N/A   Clear
1:51 AM 32.0 °F 24.2 °F 12.9 °F 45% 30.22 in 10.0 mi WNW 9.2 mph - N/A   Clear
2:51 AM 32.0 °F 24.2 °F 12.9 °F 45% 30.22 in 10.0 mi NW 9.2 mph 17.3 mph N/A   Clear
3:51 AM 32.0 °F 24.8 °F 14.0 °F 48% 30.21 in 10.0 mi NW 8.1 mph - N/A   Clear
4:51 AM 30.9 °F 23.5 °F 14.0 °F 50% 30.24 in 10.0 mi West 8.1 mph - N/A   Clear
5:51 AM 30.0 °F 25.2 °F 15.1 °F 54% 30.27 in 10.0 mi West 4.6 mph - N/A   Partly Cloudy
6:51 AM 30.0 °F 23.2 °F 15.1 °F 54% 30.31 in 10.0 mi West 6.9 mph - N/A   Clear
7:51 AM 33.1 °F 26.9 °F 16.0 °F 50% 30.32 in 10.0 mi WSW 6.9 mph - N/A   Clear
8:51 AM 37.0 °F 30.4 °F 16.0 °F 42% 30.33 in 10.0 mi West 9.2 mph - N/A   Partly Cloudy
9:51 AM 39.9 °F 33.9 °F 16.0 °F 38% 30.32 in 10.0 mi WNW 9.2 mph - N/A   Partly Cloudy
10:51 AM 44.1 °F 39.0 °F 12.9 °F 28% 30.29 in 10.0 mi NW 9.2 mph - N/A   Partly Cloudy
11:51 AM 46.9 °F - 12.0 °F 24% 30.27 in 10.0 mi West 4.6 mph - N/A   Partly Cloudy
12:51 PM 46.9 °F - 18.0 °F 32% 30.25 in 10.0 mi SSE 11.5 mph - N/A   Partly Cloudy
1:51 PM 48.9 °F - 19.0 °F 31% 30.22 in 10.0 mi SSE 9.2 mph - N/A   Mostly Cloudy
2:51 PM 53.1 °F - 10.9 °F 19% 30.19 in 10.0 mi WSW 10.4 mph 18.4 mph N/A   Mostly Cloudy
3:51 PM 53.1 °F - 19.0 °F 26% 30.15 in 10.0 mi SW 12.7 mph 19.6 mph N/A   Mostly Cloudy
4:51 PM 51.8 °F - 19.4 °F 28% 30.13 in 10.0 mi SSW 16.1 mph 24.2 mph N/A   Mostly Cloudy
5:51 PM 48.0 °F - 19.0 °F 32% 30.14 in 10.0 mi SW 15.0 mph - N/A   Mostly Cloudy
6:51 PM 44.1 °F 37.1 °F 24.1 °F 45% 30.14 in 10.0 mi SSW 15.0 mph - N/A   Mostly Cloudy
7:51 PM 39.9 °F 33.4 °F 24.1 °F 53% 30.15 in 10.0 mi SSW 10.4 mph - N/A   Mostly Cloudy
8:51 PM 39.0 °F 31.4 °F 26.1 °F 60% 30.16 in 10.0 mi SSW 12.7 mph - N/A   Overcast
9:51 PM 37.9 °F 30.5 °F 28.0 °F 68% 30.14 in 10.0 mi SSW 11.5 mph - N/A   Overcast
10:51 PM 37.9 °F 30.5 °F 30.0 °F 73% 30.12 in 10.0 mi SSW 11.5 mph - N/A   Overcast
11:51 PM 37.9 °F 31.5 °F 30.0 °F 73% 30.10 in 10.0 mi SSW 9.2 mph - N/A   Overcast